Flag for U.S.A. Weather past 2 weeks in Jacksonville, North Carolina, U.S.A.

Now
44 °F

Clear.


Feels Like: 44 °F
Forecast: 35 / 59 °F
Wind: No wind

Location: Jacksonville - New River

Current Time: Dec 25, 2014 at 10:43:18 PM

Latest Report: Dec 25, 2014 at 9:56 PM


Visibility: 10 mi

Pressure: 30.25 "Hg

Humidity: 89%

Dew point: 41 °F

Location of JacksonvilleLocation

Historic Weather in Jacksonville — Graph

°F

Jacksonville temperature yesterday

Maximum temperature yesterday: 71 °F (at 3:03 PM)
Minimum temperature yesterday: 54 °F (at 12:56 AM)
Average temperature yesterday: 67 °F

Past Weeks' High & Low Weather Summary

 TemperatureHumidityPressure
High71 °F (Dec 24, 3:03 PM)100% (Dec 23, 12:56 AM)30.32 "Hg (Dec 23, 12:56 AM)
Low30 °F (Dec 11, 5:56 AM)23% (Dec 12, 1:56 PM)29.75 "Hg (Dec 24, 11:56 PM)
Average47 °F76%30.07 "Hg
* Reported Dec 10 8:56 PM — Dec 25 8:56 PM, Jacksonville, Weather by CustomWeather, © 2014

Note: Actual official high and low records may vary slightly from our data, if they occured in-between our weather recording intervals... More about our weather records

Advertising

Jacksonville weather history for previous 24 hours

 ConditionsComfort  
Time TempWeatherWind HumidityBarometerVisibility
8:56 PM
Dec 25
44 °FClear.No wind89%30.24 "Hg10 mi
7:56 PM45 °FClear.No wind97%30.21 "Hg10 mi
6:56 PM47 °FClear.No wind90%30.17 "Hg10 mi
5:56 PM51 °FClear.5 mph71%30.15 "Hg10 mi
4:56 PM56 °FSunny.7 mph55%30.12 "Hg10 mi
3:56 PM59 °FSunny.12 mph46%30.09 "Hg10 mi
2:56 PM60 °FSunny.15 mph44%30.07 "Hg10 mi
1:56 PM60 °FSunny.13 mph53%30.05 "Hg10 mi
12:56 PM58 °FSunny.12 mph60%30.04 "Hg10 mi
11:56 AM57 °FSunny.14 mph69%30.03 "Hg10 mi
10:56 AM55 °FSunny.12 mph74%30.05 "Hg10 mi
9:56 AM55 °FSunny.12 mph74%30.01 "Hg10 mi
8:56 AM55 °FSunny.15 mph77%29.97 "Hg10 mi
7:56 AM57 °FOvercast.13 mph69%29.93 "Hg10 mi
6:56 AM60 °FOvercast.13 mph62%29.87 "Hg10 mi
5:56 AM64 °FMostly cloudy.15 mph56%29.82 "Hg10 mi
4:56 AM65 °FOvercast.10 mph91%29.79 "Hg10 mi
3:56 AM65 °FOvercast.6 mph91%29.75 "Hg10 mi
2:56 AM65 °FOvercast.10 mph94%29.75 "Hg10 mi
1:56 AM65 °FMostly cloudy.10 mph94%29.76 "Hg10 mi
12:56 AM66 °FLight rain. Overcast.9 mph90%29.76 "Hg8 mi
11:56 PM
Dec 24
67 °FOvercast.9 mph87%29.75 "Hg10 mi
10:56 PM67 °FOvercast.9 mph93%29.75 "Hg10 mi
Weather by CustomWeather, © 2014

See weather overviewHow to use our weather pages